Weather in Pamyatnoye

Russia / Tyumen Oblast     56°36′30″N   66°16′30″E
temp.,
°C
wind,
m/s
gust,
m/s
humid.,
%
clouds,
%
prec.,
mm/h
press.,
hPa
HPBL,
m
9 december, thu
thu923:00−14ssw3886100 0.0 1041187
02:00−12ssw5118299 0.0 1040263
05:00−11ssw51379100 0.0 1038327
08:00−9ssw61377100 0.1 1037394
11:00−8ssw61280100 0.1 1036383
14:00−7ssw5117983 0.0 1036358
17:00−8ssw5118196 0.0 1036267
20:00−8ssw51180100 0.0 1036245
10 december, fri
fri1023:00−9ssw51178100 0.0 1035233
02:00−9ssw51376100 0.0 1034248
05:00−9ssw6157099 0.0 1033296
08:00−9ssw61667100 0.0 1032309
11:00−8ssw71766100 0.0 1031354
14:00−6ssw71667100 0.0 1029392
17:00−7ssw61571100 0.0 1028345
20:00−7ssw51277100 0.0 1027320
11 december, sat
sat1123:00−7sw488599 0.0 1027209
02:00−9wsw259468 0.0 1027107
05:00−11nw389748 0.0 1029166
08:00−13nnw259611 0.0 103195
11:00−12nw29895 0.0 1032241
14:00−10nw26865 0.0 1032191
17:00−14w23965 0.0 103236
20:00−14wnw24955 0.0 103362
12 december, sun
sun1223:00−14nw27965 0.0 1033110
02:00−15nw259735 0.0 103584
05:00−15nw259739 0.0 103671
08:00−15w239725 0.0 103642
11:00−13wsw249115 0.0 103788
14:00−10wsw37875 0.0 1036167
17:00−11wsw388956 0.0 1035120
20:00−12wsw3791100 0.0 1034108
13 december, mon
mon1323:00−10wsw38889 0.0 1033175
02:00−11w4986100 0.0 1033181
05:00−11w498793 0.0 1033190
08:00−12w398941 0.0 1032155
11:00−10w3987100 0.0 1032241
14:00−9w488473 0.0 1031274
17:00−12wnw369237 0.0 103290
20:00−12wnw2694100 0.0 1032103